When you browse on this site, cookies collect data to enhance your experience and personalize the content and advertising you see.
Visit our Privacy Policy to learn more. By continuing to use the site, you agree to this use of cookies and data.
  • In Hungary
  • List of Countries
  • For 7 days
  • Water Temperature
  • Satellite Maps
  • Weather Map
  • News
  • Weather Widgets
  • user-avatar
    Login

    Hourly Weather Blantyre

    Today, 18 November, Sunday

    Time Temperature Precipitation Wind Pressure Humidity
    00:00 +24°C° 0.2 mm 1 mps 676 mmHg 57%
    01:00 +24°C° 0.2 mm 1 mps 675 mmHg 60%
    02:00 +23°C° 0.2 mm 1 mps 675 mmHg 62%
    03:00 +23°C° 0.3 mm 1 mps 675 mmHg 63%
    04:00 +23°C° 0.3 mm 1 mps 675 mmHg 65%
    05:00 +23°C° 0.3 mm 1 mps 675 mmHg 66%
    06:00 +25°C° 0.1 mm 1 mps 676 mmHg 59%
    07:00 +27°C° 0.1 mm 1 mps 677 mmHg 53%
    08:00 +29°C° 0.1 mm 2 mps 678 mmHg 46%
    09:00 +31°C° 0 mm 1 mps 678 mmHg 41%
    10:00 +33°C° 0 mm 1 mps 678 mmHg 36%
    11:00 +35°C° 0 mm 1 mps 678 mmHg 32%
    12:00 +34°C° 0.3 mm 1 mps 677 mmHg 34%
    13:00 +33°C° 0.3 mm 1 mps 676 mmHg 37%
    14:00 +31°C° 0.3 mm 2 mps 675 mmHg 40%
    15:00 +30°C° 0.4 mm 2 mps 675 mmHg 43%
    16:00 +29°C° 0.4 mm 2 mps 675 mmHg 46%
    17:00 +29°C° 0.4 mm 2 mps 675 mmHg 49%
    18:00 +27°C° 1.6 mm 2 mps 675 mmHg 55%
    19:00 +26°C° 1.6 mm 2 mps 675 mmHg 61%
    20:00 +24°C° 1.6 mm 2 mps 675 mmHg 67%
    21:00 +24°C° 0.3 mm 2 mps 675 mmHg 69%
    22:00 +24°C° 0.3 mm 2 mps 676 mmHg 71%
    23:00 +23°C° 0.3 mm 2 mps 676 mmHg 74%

    Tomorrow, 19 November, Monday

    Time Temperature Precipitation Wind Pressure Humidity
    00:00 +23°C° 0 mm 1 mps 676 mmHg 76%
    01:00 +22°C° 0 mm 1 mps 675 mmHg 79%
    02:00 +22°C° 0 mm 1 mps 675 mmHg 81%
    03:00 +21°C° 0 mm 1 mps 675 mmHg 82%
    04:00 +21°C° 0 mm 1 mps 675 mmHg 82%
    05:00 +21°C° 0 mm 1 mps 675 mmHg 82%
    06:00 +23°C° 0.1 mm 1 mps 676 mmHg 74%
    07:00 +25°C° 0.1 mm 1 mps 677 mmHg 65%
    08:00 +27°C° 0.1 mm 1 mps 678 mmHg 56%
    09:00 +29°C° 0.4 mm 1 mps 678 mmHg 50%
    10:00 +31°C° 0.4 mm 2 mps 678 mmHg 45%
    11:00 +32°C° 0.4 mm 2 mps 678 mmHg 39%
    12:00 +31°C° 0.3 mm 2 mps 677 mmHg 41%
    13:00 +30°C° 0.3 mm 2 mps 676 mmHg 43%
    14:00 +30°C° 0.3 mm 2 mps 675 mmHg 45%
    15:00 +29°C° 0.1 mm 3 mps 675 mmHg 48%
    16:00 +28°C° 0.1 mm 3 mps 675 mmHg 50%
    17:00 +27°C° 0.1 mm 3 mps 675 mmHg 52%
    18:00 +26°C° 0 mm 2 mps 675 mmHg 57%
    19:00 +25°C° 0 mm 2 mps 676 mmHg 62%
    20:00 +24°C° 0 mm 2 mps 676 mmHg 67%
    21:00 +23°C° 0 mm 2 mps 676 mmHg 70%
    22:00 +22°C° 0 mm 1 mps 676 mmHg 73%
    23:00 +22°C° 0 mm 1 mps 676 mmHg 76%

    Day after tomorrow, 20 November, Tuesday

    Time Temperature Precipitation Wind Pressure Humidity
    00:00 +21°C° 0 mm 1 mps 675 mmHg 77%
    01:00 +21°C° 0 mm 1 mps 675 mmHg 78%
    02:00 +21°C° 0 mm 1 mps 674 mmHg 80%
    03:00 +20°C° 0 mm 1 mps 674 mmHg 80%
    04:00 +20°C° 0 mm 1 mps 675 mmHg 80%
    05:00 +20°C° 0 mm 1 mps 675 mmHg 81%
    06:00 +23°C° 0 mm 1 mps 676 mmHg 72%
    07:00 +25°C° 0 mm 2 mps 677 mmHg 62%
    08:00 +27°C° 0 mm 2 mps 678 mmHg 53%
    09:00 +29°C° 0.1 mm 2 mps 677 mmHg 49%
    10:00 +31°C° 0.1 mm 2 mps 677 mmHg 45%
    11:00 +32°C° 0.1 mm 2 mps 677 mmHg 40%
    12:00 +32°C° 0.1 mm 2 mps 676 mmHg 41%
    13:00 +32°C° 0.1 mm 1 mps 676 mmHg 41%
    14:00 +31°C° 0.1 mm 1 mps 675 mmHg 41%
    15:00 +31°C° 0 mm 1 mps 675 mmHg 44%
    16:00 +30°C° 0 mm 2 mps 674 mmHg 46%
    17:00 +29°C° 0 mm 2 mps 674 mmHg 49%
    18:00 +27°C° 0 mm 2 mps 674 mmHg 54%
    19:00 +26°C° 0 mm 2 mps 675 mmHg 59%
    20:00 +25°C° 0 mm 2 mps 675 mmHg 64%
    21:00 +25°C° 0 mm 2 mps 675 mmHg 66%
    22:00 +24°C° 0 mm 2 mps 675 mmHg 68%
    23:00 +24°C° 0 mm 2 mps 675 mmHg 69%

    21 November, Wednesday

    Time Temperature Precipitation Wind Pressure Humidity
    00:00 +23°C° 0 mm 2 mps 674 mmHg 70%
    01:00 +23°C° 0 mm 2 mps 673 mmHg 72%
    02:00 +23°C° 0 mm 2 mps 673 mmHg 73%
    03:00 +21°C° 0 mm 2 mps 673 mmHg 74%
    04:00 +21°C° 0 mm 2 mps 673 mmHg 74%
    05:00 +21°C° 0 mm 2 mps 674 mmHg 75%
    06:00 +24°C° 0 mm 2 mps 675 mmHg 66%
    07:00 +27°C° 0 mm 3 mps 676 mmHg 57%
    08:00 +29°C° 0 mm 3 mps 677 mmHg 49%
    09:00 +31°C° 0 mm 3 mps 677 mmHg 43%
    10:00 +34°C° 0 mm 3 mps 676 mmHg 37%
    11:00 +36°C° 0 mm 2 mps 676 mmHg 31%
    12:00 +37°C° 0 mm 2 mps 676 mmHg 28%
    13:00 +38°C° 0 mm 2 mps 675 mmHg 25%
    14:00 +39°C° 0 mm 2 mps 674 mmHg 23%
    15:00 +37°C° 0 mm 2 mps 674 mmHg 25%
    16:00 +36°C° 0 mm 2 mps 674 mmHg 28%
    17:00 +35°C° 0 mm 3 mps 673 mmHg 30%
    18:00 +33°C° 0 mm 3 mps 674 mmHg 37%
    19:00 +30°C° 0 mm 3 mps 674 mmHg 44%
    20:00 +28°C° 0 mm 3 mps 674 mmHg 51%
    21:00 +28°C° 0 mm 3 mps 674 mmHg 53%
    22:00 +27°C° 0 mm 3 mps 674 mmHg 56%
    23:00 +26°C° 0 mm 3 mps 674 mmHg 59%

    22 November, Thursday

    Time Temperature Precipitation Wind Pressure Humidity
    00:00 +26°C° 0 mm 3 mps 673 mmHg 60%
    01:00 +25°C° 0 mm 3 mps 673 mmHg 62%
    02:00 +25°C° 0 mm 3 mps 673 mmHg 63%
    03:00 +25°C° 0 mm 2 mps 673 mmHg 65%
    04:00 +24°C° 0 mm 2 mps 673 mmHg 67%
    05:00 +24°C° 0 mm 2 mps 674 mmHg 69%
    06:00 +26°C° 0 mm 2 mps 675 mmHg 61%
    07:00 +28°C° 0 mm 2 mps 676 mmHg 54%
    08:00 +30°C° 0 mm 3 mps 677 mmHg 46%
    09:00 +32°C° 0.2 mm 2 mps 677 mmHg 41%
    10:00 +35°C° 0.2 mm 2 mps 677 mmHg 36%
    11:00 +36°C° 0.2 mm 1 mps 677 mmHg 30%
    12:00 +36°C° 0.1 mm 2 mps 676 mmHg 32%
    13:00 +35°C° 0.1 mm 2 mps 675 mmHg 33%
    14:00 +34°C° 0.1 mm 2 mps 674 mmHg 35%
    15:00 +32°C° 0.3 mm 2 mps 674 mmHg 37%
    16:00 +32°C° 0.3 mm 2 mps 674 mmHg 39%
    17:00 +31°C° 0.3 mm 2 mps 674 mmHg 41%
    18:00 +29°C° 0.2 mm 2 mps 674 mmHg 46%
    19:00 +28°C° 0.2 mm 1 mps 675 mmHg 50%
    20:00 +26°C° 0.2 mm 1 mps 675 mmHg 55%
    21:00 +26°C° 0.1 mm 1 mps 675 mmHg 58%
    22:00 +25°C° 0.1 mm 2 mps 675 mmHg 62%
    23:00 +25°C° 0.1 mm 2 mps 676 mmHg 65%

    23 November, Friday

    Time Temperature Precipitation Wind Pressure Humidity
    00:00 +24°C° 0.4 mm 2 mps 675 mmHg 69%
    01:00 +23°C° 0.4 mm 2 mps 675 mmHg 73%
    02:00 +23°C° 0.4 mm 1 mps 674 mmHg 76%
    03:00 +22°C° 0.2 mm 1 mps 675 mmHg 79%
    04:00 +22°C° 0.2 mm 1 mps 675 mmHg 82%
    05:00 +21°C° 0.2 mm 1 mps 675 mmHg 84%
    06:00 +24°C° 0.3 mm 1 mps 676 mmHg 75%
    07:00 +26°C° 0.3 mm 1 mps 677 mmHg 66%
    08:00 +28°C° 0.3 mm 1 mps 677 mmHg 57%
    09:00 +30°C° 0.7 mm 1 mps 677 mmHg 51%
    10:00 +31°C° 0.7 mm 1 mps 677 mmHg 46%
    11:00 +33°C° 0.7 mm 1 mps 677 mmHg 40%
    12:00 +34°C° 0.3 mm 2 mps 676 mmHg 39%
    13:00 +34°C° 0.3 mm 2 mps 676 mmHg 38%
    14:00 +32°C° 0.3 mm 2 mps 675 mmHg 38%
    15:00 +32°C° 0 mm 2 mps 675 mmHg 39%
    16:00 +31°C° 0 mm 2 mps 675 mmHg 41%
    17:00 +30°C° 0 mm 2 mps 674 mmHg 42%
    18:00 +29°C° 0.5 mm 2 mps 675 mmHg 48%
    19:00 +27°C° 0.5 mm 1 mps 675 mmHg 54%
    20:00 +26°C° 0.5 mm 1 mps 675 mmHg 61%
    21:00 +25°C° 0.2 mm 1 mps 675 mmHg 65%
    22:00 +24°C° 0.2 mm 1 mps 675 mmHg 69%
    23:00 +23°C° 0.2 mm 1 mps 675 mmHg 73%
    Show more